Time,TemperatureF,DewpointF,PressureIn,WindDirection,WindDirectionDegrees,WindSpeedMPH,WindSpeedGustMPH,Humidity,HourlyPrecipIn,Conditions,Clouds,dailyrainin,SoftwareType,DateUTC
2013-03-03 00:00:00,29.0,20.5,29.76,SW,226,1.0,3.0,70,0.00,,,0.00,HR-IXPWINDi_r2_v1.2.,2013-03-03 05:00:00,
2013-03-03 00:05:00,29.0,20.5,29.76,WSW,250,1.0,4.0,70,0.00,,,0.00,HR-IXPWINDi_r2_v1.2.,2013-03-03 05:05:00,
2013-03-03 00:10:00,28.9,20.4,29.76,NW,318,2.0,5.0,70,0.00,,,0.00,HR-IXPWINDi_r2_v1.2.,2013-03-03 05:10:00,
2013-03-03 00:16:00,28.9,20.0,29.76,South,170,2.0,5.0,69,0.00,,,0.00,HR-IXPWINDi_r2_v1.2.,2013-03-03 05:16:00,
2013-03-03 00:21:00,28.8,19.9,29.76,WNW,295,1.0,4.0,69,0.00,,,0.00,HR-IXPWINDi_r2_v1.2.,2013-03-03 05:21:00,
2013-03-03 00:26:00,28.8,19.6,29.76,SW,221,1.0,6.0,68,0.00,,,0.00,HR-IXPWINDi_r2_v1.2.,2013-03-03 05:26:00,
2013-03-03 00:31:00,28.7,19.8,29.76,West,265,0.0,6.0,69,0.00,,,0.00,HR-IXPWINDi_r2_v1.2.,2013-03-03 05:31:00,
2013-03-03 00:36:00,28.7,19.5,29.76,NNW,331,4.0,6.0,68,0.00,,,0.00,HR-IXPWINDi_r2_v1.2.,2013-03-03 05:36:00,
2013-03-03 00:42:00,28.7,19.8,29.76,NNW,344,2.0,5.0,69,0.00,,,0.00,HR-IXPWINDi_r2_v1.2.,2013-03-03 05:42:00,
2013-03-03 00:47:00,28.7,19.5,29.76,WSW,247,2.0,7.0,68,0.00,,,0.00,HR-IXPWINDi_r2_v1.2.,2013-03-03 05:47:00,
2013-03-03 00:52:00,28.7,19.8,29.76,NNW,331,0.0,7.0,69,0.00,,,0.00,HR-IXPWINDi_r2_v1.2.,2013-03-03 05:52:00,
2013-03-03 00:57:00,28.6,19.4,29.77,SW,222,0.0,3.0,68,0.00,,,0.00,HR-IXPWINDi_r2_v1.2.,2013-03-03 05:57:00,
2013-03-03 01:02:00,28.7,19.5,29.77,North,352,1.0,6.0,68,0.00,,,0.00,HR-IXPWINDi_r2_v1.2.,2013-03-03 06:02:00,
2013-03-03 01:07:00,28.7,19.5,29.77,WSW,253,1.0,6.0,68,0.00,,,0.00,HR-IXPWINDi_r2_v1.2.,2013-03-03 06:07:00,
2013-03-03 01:13:00,28.7,19.5,29.77,WSW,252,0.0,3.0,68,0.00,,,0.00,HR-IXPWINDi_r2_v1.2.,2013-03-03 06:13:00,
2013-03-03 01:18:00,28.7,19.1,29.77,SSW,203,3.0,6.0,67,0.00,,,0.00,HR-IXPWINDi_r2_v1.2.,2013-03-03 06:18:00,
2013-03-03 01:23:00,28.7,19.5,29.77,WNW,285,1.0,6.0,68,0.00,,,0.00,HR-IXPWINDi_r2_v1.2.,2013-03-03 06:23:00,
2013-03-03 01:28:00,28.7,19.5,29.77,West,259,1.0,4.0,68,0.00,,,0.00,HR-IXPWINDi_r2_v1.2.,2013-03-03 06:28:00,
2013-03-03 01:33:00,28.7,19.1,29.77,WSW,248,0.0,4.0,67,0.00,,,0.00,HR-IXPWINDi_r2_v1.2.,2013-03-03 06:33:00,
2013-03-03 01:39:00,28.7,19.1,29.77,WNW,299,1.0,6.0,67,0.00,,,0.00,HR-IXPWINDi_r2_v1.2.,2013-03-03 06:39:00,
2013-03-03 01:44:00,28.6,19.0,29.77,SSE,153,0.0,6.0,67,0.00,,,0.00,HR-IXPWINDi_r2_v1.2.,2013-03-03 06:44:00,
2013-03-03 01:49:00,28.6,19.0,29.77,NW,313,0.0,3.0,67,0.00,,,0.00,HR-IXPWINDi_r2_v1.2.,2013-03-03 06:49:00,
2013-03-03 01:54:00,28.6,19.0,29.76,WNW,300,2.0,3.0,67,0.00,,,0.00,HR-IXPWINDi_r2_v1.2.,2013-03-03 06:54:00,
2013-03-03 01:59:00,28.5,19.0,29.76,WSW,245,0.0,2.0,67,0.00,,,0.00,HR-IXPWINDi_r2_v1.2.,2013-03-03 06:59:00,
2013-03-03 02:05:00,28.5,19.3,29.76,NNW,337,1.0,3.0,68,0.00,,,0.00,HR-IXPWINDi_r2_v1.2.,2013-03-03 07:05:00,
2013-03-03 02:10:00,28.5,19.0,29.76,West,266,0.0,4.0,67,0.00,,,0.00,HR-IXPWINDi_r2_v1.2.,2013-03-03 07:10:00,
2013-03-03 02:15:00,28.4,18.9,29.76,SW,220,1.0,4.0,67,0.00,,,0.00,HR-IXPWINDi_r2_v1.2.,2013-03-03 07:15:00,
2013-03-03 02:21:00,28.3,18.8,29.76,SW,227,1.0,4.0,67,0.00,,,0.00,HR-IXPWINDi_r2_v1.2.,2013-03-03 07:21:00,
2013-03-03 02:26:00,28.3,19.1,29.75,West,261,0.0,4.0,68,0.00,,,0.00,HR-IXPWINDi_r2_v1.2.,2013-03-03 07:26:00,
2013-03-03 02:31:00,28.2,18.7,29.75,SSW,205,1.0,5.0,67,0.00,,,0.00,HR-IXPWINDi_r2_v1.2.,2013-03-03 07:31:00,
2013-03-03 02:36:00,28.1,18.9,29.75,WNW,302,0.0,5.0,68,0.00,,,0.00,HR-IXPWINDi_r2_v1.2.,2013-03-03 07:36:00,
2013-03-03 02:42:00,28.1,18.6,29.75,South,184,1.0,6.0,67,0.00,,,0.00,HR-IXPWINDi_r2_v1.2.,2013-03-03 07:42:00,
2013-03-03 02:47:00,28.0,18.5,29.75,NW,320,1.0,6.0,67,0.00,,,0.00,HR-IXPWINDi_r2_v1.2.,2013-03-03 07:47:00,
2013-03-03 02:52:00,28.0,18.8,29.75,WSW,239,1.0,5.0,68,0.00,,,0.00,HR-IXPWINDi_r2_v1.2.,2013-03-03 07:52:00,
2013-03-03 02:57:00,27.9,18.4,29.75,West,261,1.0,4.0,67,0.00,,,0.00,HR-IXPWINDi_r2_v1.2.,2013-03-03 07:57:00,
2013-03-03 03:03:00,27.9,18.4,29.75,WSW,252,0.0,4.0,67,0.00,,,0.00,HR-IXPWINDi_r2_v1.2.,2013-03-03 08:03:00,
2013-03-03 03:08:00,27.8,18.3,29.75,West,276,0.0,4.0,67,0.00,,,0.00,HR-IXPWINDi_r2_v1.2.,2013-03-03 08:08:00,
2013-03-03 03:13:00,27.8,18.6,29.75,WSW,254,1.0,5.0,68,0.00,,,0.00,HR-IXPWINDi_r2_v1.2.,2013-03-03 08:13:00,
2013-03-03 03:19:00,27.8,18.6,29.75,WSW,256,0.0,5.0,68,0.00,,,0.00,HR-IXPWINDi_r2_v1.2.,2013-03-03 08:19:00,
2013-03-03 03:24:00,27.7,18.2,29.75,NW,314,1.0,5.0,67,0.00,,,0.00,HR-IXPWINDi_r2_v1.2.,2013-03-03 08:24:00,
2013-03-03 03:29:00,27.6,18.4,29.74,WNW,302,1.0,5.0,68,0.00,,,0.00,HR-IXPWINDi_r2_v1.2.,2013-03-03 08:29:00,
2013-03-03 03:34:00,27.6,18.4,29.75,WSW,238,0.0,5.0,68,0.00,,,0.00,HR-IXPWINDi_r2_v1.2.,2013-03-03 08:34:00,
2013-03-03 03:39:00,27.5,19.0,29.74,SW,225,1.0,5.0,70,0.00,,,0.00,HR-IXPWINDi_r2_v1.2.,2013-03-03 08:39:00,
2013-03-03 03:45:00,27.5,18.3,29.74,NNW,337,1.0,6.0,68,0.00,,,0.00,HR-IXPWINDi_r2_v1.2.,2013-03-03 08:45:00,
2013-03-03 03:50:00,27.5,18.3,29.74,WSW,245,1.0,6.0,68,0.00,,,0.00,HR-IXPWINDi_r2_v1.2.,2013-03-03 08:50:00,
2013-03-03 03:55:00,27.5,18.3,29.75,NW,313,0.0,4.0,68,0.00,,,0.00,HR-IXPWINDi_r2_v1.2.,2013-03-03 08:55:00,
2013-03-03 04:00:00,27.4,18.2,29.75,NW,313,2.0,4.0,68,0.00,,,0.00,HR-IXPWINDi_r2_v1.2.,2013-03-03 09:00:00,
2013-03-03 04:06:00,27.4,18.2,29.75,NW,314,2.0,3.0,68,0.00,,,0.00,HR-IXPWINDi_r2_v1.2.,2013-03-03 09:06:00,
2013-03-03 04:11:00,27.3,18.2,29.75,WSW,254,0.0,3.0,68,0.00,,,0.00,HR-IXPWINDi_r2_v1.2.,2013-03-03 09:11:00,
2013-03-03 04:16:00,27.3,18.2,29.75,NNW,341,1.0,5.0,68,0.00,,,0.00,HR-IXPWINDi_r2_v1.2.,2013-03-03 09:16:00,
2013-03-03 04:21:00,27.3,17.8,29.75,West,279,0.0,5.0,67,0.00,,,0.00,HR-IXPWINDi_r2_v1.2.,2013-03-03 09:21:00,
2013-03-03 04:26:00,27.2,18.1,29.75,North,354,0.0,2.0,68,0.00,,,0.00,HR-IXPWINDi_r2_v1.2.,2013-03-03 09:26:00,
2013-03-03 04:32:00,27.1,18.3,29.75,NW,316,0.0,2.0,69,0.00,,,0.00,HR-IXPWINDi_r2_v1.2.,2013-03-03 09:32:00,
2013-03-03 04:37:00,27.1,17.6,29.75,SSW,197,0.0,2.0,67,0.00,,,0.00,HR-IXPWINDi_r2_v1.2.,2013-03-03 09:37:00,
2013-03-03 04:42:00,27.0,17.9,29.76,SSW,205,0.0,2.0,68,0.00,,,0.00,HR-IXPWINDi_r2_v1.2.,2013-03-03 09:42:00,
2013-03-03 04:47:00,27.0,17.5,29.76,WSW,254,3.0,4.0,67,0.00,,,0.00,HR-IXPWINDi_r2_v1.2.,2013-03-03 09:47:00,
2013-03-03 04:52:00,26.9,17.4,29.76,WSW,240,0.0,4.0,67,0.00,,,0.00,HR-IXPWINDi_r2_v1.2.,2013-03-03 09:52:00,
2013-03-03 04:58:00,26.9,17.8,29.76,WSW,243,0.0,4.0,68,0.00,,,0.00,HR-IXPWINDi_r2_v1.2.,2013-03-03 09:58:00,
2013-03-03 05:03:00,26.8,17.3,29.76,WSW,252,1.0,3.0,67,0.00,,,0.00,HR-IXPWINDi_r2_v1.2.,2013-03-03 10:03:00,
2013-03-03 05:08:00,26.7,17.2,29.76,WSW,244,0.0,3.0,67,0.00,,,0.00,HR-IXPWINDi_r2_v1.2.,2013-03-03 10:08:00,
2013-03-03 05:13:00,26.6,17.1,29.76,NNW,341,2.0,5.0,67,0.00,,,0.00,HR-IXPWINDi_r2_v1.2.,2013-03-03 10:13:00,
2013-03-03 05:18:00,26.6,17.1,29.76,SW,224,0.0,5.0,67,0.00,,,0.00,HR-IXPWINDi_r2_v1.2.,2013-03-03 10:18:00,
2013-03-03 05:24:00,26.6,16.8,29.76,WSW,240,0.0,3.0,66,0.00,,,0.00,HR-IXPWINDi_r2_v1.2.,2013-03-03 10:24:00,
2013-03-03 05:29:00,26.5,17.0,29.76,West,259,1.0,4.0,67,0.00,,,0.00,HR-IXPWINDi_r2_v1.2.,2013-03-03 10:29:00,
2013-03-03 05:34:00,26.5,17.0,29.76,SW,226,0.0,5.0,67,0.00,,,0.00,HR-IXPWINDi_r2_v1.2.,2013-03-03 10:34:00,
2013-03-03 05:39:00,26.5,17.0,29.76,NW,321,0.0,5.0,67,0.00,,,0.00,HR-IXPWINDi_r2_v1.2.,2013-03-03 10:39:00,
2013-03-03 05:44:00,26.4,17.3,29.76,SW,228,0.0,2.0,68,0.00,,,0.00,HR-IXPWINDi_r2_v1.2.,2013-03-03 10:44:00,
2013-03-03 05:49:00,26.3,17.2,29.77,NW,306,0.0,4.0,68,0.00,,,0.00,HR-IXPWINDi_r2_v1.2.,2013-03-03 10:49:00,
2013-03-03 05:55:00,26.3,16.9,29.77,SW,236,0.0,4.0,67,0.00,,,0.00,HR-IXPWINDi_r2_v1.2.,2013-03-03 10:55:00,
2013-03-03 06:00:00,26.2,16.8,29.77,WSW,237,0.0,5.0,67,0.00,,,0.00,HR-IXPWINDi_r2_v1.2.,2013-03-03 11:00:00,
2013-03-03 06:05:00,26.2,16.8,29.76,NNW,331,2.0,5.0,67,0.00,,,0.00,HR-IXPWINDi_r2_v1.2.,2013-03-03 11:05:00,
2013-03-03 06:10:00,26.1,16.7,29.77,WSW,255,0.0,3.0,67,0.00,,,0.00,HR-IXPWINDi_r2_v1.2.,2013-03-03 11:10:00,
2013-03-03 06:16:00,26.1,17.0,29.77,WNW,283,4.0,5.0,68,0.00,,,0.00,HR-IXPWINDi_r2_v1.2.,2013-03-03 11:16:00,
2013-03-03 06:21:00,26.1,16.3,29.77,NW,316,2.0,6.0,66,0.00,,,0.00,HR-IXPWINDi_r2_v1.2.,2013-03-03 11:21:00,
2013-03-03 06:26:00,26.0,16.6,29.77,WSW,240,0.0,6.0,67,0.00,,,0.00,HR-IXPWINDi_r2_v1.2.,2013-03-03 11:26:00,
2013-03-03 06:31:00,25.9,16.5,29.77,SW,218,1.0,6.0,67,0.00,,,0.00,HR-IXPWINDi_r2_v1.2.,2013-03-03 11:31:00,
2013-03-03 06:36:00,25.9,16.1,29.77,West,259,0.0,6.0,66,0.00,,,0.00,HR-IXPWINDi_r2_v1.2.,2013-03-03 11:36:00,
2013-03-03 06:41:00,25.9,16.5,29.77,NW,319,2.0,7.0,67,0.00,,,0.00,HR-IXPWINDi_r2_v1.2.,2013-03-03 11:41:00,
2013-03-03 06:47:00,25.9,16.5,29.78,NW,323,2.0,7.0,67,0.00,,,0.00,HR-IXPWINDi_r2_v1.2.,2013-03-03 11:47:00,
2013-03-03 06:52:00,25.8,16.4,29.78,SW,231,0.0,5.0,67,0.00,,,0.00,HR-IXPWINDi_r2_v1.2.,2013-03-03 11:52:00,
2013-03-03 06:57:00,25.8,16.4,29.78,WSW,237,0.0,4.0,67,0.00,,,0.00,HR-IXPWINDi_r2_v1.2.,2013-03-03 11:57:00,
2013-03-03 07:02:00,25.8,16.7,29.78,West,265,1.0,4.0,68,0.00,,,0.00,HR-IXPWINDi_r2_v1.2.,2013-03-03 12:02:00,
2013-03-03 07:08:00,25.7,15.9,29.78,WSW,251,0.0,5.0,66,0.00,,,0.00,HR-IXPWINDi_r2_v1.2.,2013-03-03 12:08:00,
2013-03-03 07:13:00,25.7,15.9,29.78,WNW,286,3.0,5.0,66,0.00,,,0.00,HR-IXPWINDi_r2_v1.2.,2013-03-03 12:13:00,
2013-03-03 07:18:00,25.8,16.4,29.78,WSW,248,1.0,5.0,67,0.00,,,0.00,HR-IXPWINDi_r2_v1.2.,2013-03-03 12:18:00,
2013-03-03 07:23:00,25.8,16.4,29.78,WSW,241,1.0,6.0,67,0.00,,,0.00,HR-IXPWINDi_r2_v1.2.,2013-03-03 12:23:00,
2013-03-03 07:28:00,25.9,16.5,29.78,WSW,248,1.0,6.0,67,0.00,,,0.00,HR-IXPWINDi_r2_v1.2.,2013-03-03 12:28:00,
2013-03-03 07:34:00,26.0,16.6,29.78,SW,223,1.0,5.0,67,0.00,,,0.00,HR-IXPWINDi_r2_v1.2.,2013-03-03 12:34:00,
2013-03-03 07:40:00,26.1,16.7,29.78,WSW,251,0.0,3.0,67,0.00,,,0.00,HR-IXPWINDi_r2_v1.2.,2013-03-03 12:40:00,
2013-03-03 07:45:00,26.3,16.9,29.78,NNW,338,1.0,5.0,67,0.00,,,0.00,HR-IXPWINDi_r2_v1.2.,2013-03-03 12:45:00,
2013-03-03 07:50:00,26.4,16.6,29.78,SSW,199,2.0,5.0,66,0.00,,,0.00,HR-IXPWINDi_r2_v1.2.,2013-03-03 12:50:00,
2013-03-03 07:55:00,26.5,16.7,29.78,WSW,238,3.0,7.0,66,0.00,,,0.00,HR-IXPWINDi_r2_v1.2.,2013-03-03 12:55:00,
2013-03-03 08:00:00,26.5,16.7,29.78,NW,325,1.0,7.0,66,0.00,,,0.00,HR-IXPWINDi_r2_v1.2.,2013-03-03 13:00:00,
2013-03-03 08:06:00,26.6,16.8,29.78,West,262,2.0,6.0,66,0.00,,,0.00,HR-IXPWINDi_r2_v1.2.,2013-03-03 13:06:00,
2013-03-03 08:11:00,26.8,17.0,29.78,WNW,290,1.0,5.0,66,0.00,,,0.00,HR-IXPWINDi_r2_v1.2.,2013-03-03 13:11:00,
2013-03-03 08:16:00,26.9,16.7,29.78,NW,316,3.0,6.0,65,0.00,,,0.00,HR-IXPWINDi_r2_v1.2.,2013-03-03 13:16:00,
2013-03-03 08:21:00,26.9,17.1,29.77,WSW,254,1.0,6.0,66,0.00,,,0.00,HR-IXPWINDi_r2_v1.2.,2013-03-03 13:21:00,
2013-03-03 08:26:00,27.2,17.0,29.77,WNW,285,0.0,4.0,65,0.00,,,0.00,HR-IXPWINDi_r2_v1.2.,2013-03-03 13:26:00,
2013-03-03 08:32:00,27.5,16.9,29.77,SW,221,3.0,4.0,64,0.00,,,0.00,HR-IXPWINDi_r2_v1.2.,2013-03-03 13:32:00,
2013-03-03 08:37:00,27.6,17.0,29.77,West,267,1.0,4.0,64,0.00,,,0.00,HR-IXPWINDi_r2_v1.2.,2013-03-03 13:37:00,
2013-03-03 08:42:00,27.6,16.7,29.77,SW,219,2.0,8.0,63,0.00,,,0.00,HR-IXPWINDi_r2_v1.2.,2013-03-03 13:42:00,
2013-03-03 08:47:00,27.7,16.8,29.77,WSW,245,1.0,8.0,63,0.00,,,0.00,HR-IXPWINDi_r2_v1.2.,2013-03-03 13:47:00,
2013-03-03 08:52:00,27.7,16.4,29.77,West,264,2.0,6.0,62,0.00,,,0.00,HR-IXPWINDi_r2_v1.2.,2013-03-03 13:52:00,
2013-03-03 08:57:00,27.9,17.0,29.76,North,1,0.0,6.0,63,0.00,,,0.00,HR-IXPWINDi_r2_v1.2.,2013-03-03 13:57:00,
2013-03-03 09:03:00,28.2,17.2,29.76,WNW,292,1.0,4.0,63,0.00,,,0.00,HR-IXPWINDi_r2_v1.2.,2013-03-03 14:03:00,
2013-03-03 09:09:00,28.4,17.1,29.76,SW,235,2.0,5.0,62,0.00,,,0.00,HR-IXPWINDi_r2_v1.2.,2013-03-03 14:09:00,
2013-03-03 09:14:00,28.4,17.1,29.76,NW,317,2.0,5.0,62,0.00,,,0.00,HR-IXPWINDi_r2_v1.2.,2013-03-03 14:14:00,
2013-03-03 09:19:00,28.5,16.8,29.76,WSW,250,1.0,5.0,61,0.00,,,0.00,HR-IXPWINDi_r2_v1.2.,2013-03-03 14:19:00,
2013-03-03 09:24:00,28.5,16.8,29.76,West,276,2.0,6.0,61,0.00,,,0.00,HR-IXPWINDi_r2_v1.2.,2013-03-03 14:24:00,
2013-03-03 09:29:00,28.4,17.1,29.76,North,5,1.0,6.0,62,0.00,,,0.00,HR-IXPWINDi_r2_v1.2.,2013-03-03 14:29:00,
2013-03-03 09:34:00,28.8,17.8,29.76,SW,219,1.0,4.0,63,0.00,,,0.00,HR-IXPWINDi_r2_v1.2.,2013-03-03 14:34:00,
2013-03-03 09:40:00,29.0,16.5,29.76,West,262,1.0,7.0,59,0.00,,,0.00,HR-IXPWINDi_r2_v1.2.,2013-03-03 14:40:00,
2013-03-03 09:45:00,29.2,17.1,29.76,SW,220,2.0,7.0,60,0.00,,,0.00,HR-IXPWINDi_r2_v1.2.,2013-03-03 14:45:00,
2013-03-03 09:50:00,29.3,16.8,29.75,SW,227,0.0,7.0,59,0.00,,,0.00,HR-IXPWINDi_r2_v1.2.,2013-03-03 14:50:00,
2013-03-03 09:55:00,29.9,17.3,29.75,West,273,1.0,7.0,59,0.00,,,0.00,HR-IXPWINDi_r2_v1.2.,2013-03-03 14:55:00,
2013-03-03 10:01:00,30.2,17.6,29.74,SW,221,2.0,5.0,59,0.00,,,0.00,HR-IXPWINDi_r2_v1.2.,2013-03-03 15:01:00,
2013-03-03 10:06:00,30.4,17.4,29.74,SW,236,5.0,8.0,58,0.00,,,0.00,HR-IXPWINDi_r2_v1.2.,2013-03-03 15:06:00,
2013-03-03 10:11:00,30.8,17.4,29.74,NW,325,3.0,8.0,57,0.00,,,0.00,HR-IXPWINDi_r2_v1.2.,2013-03-03 15:11:00,
2013-03-03 10:16:00,31.0,17.2,29.74,NNW,335,2.0,8.0,56,0.00,,,0.00,HR-IXPWINDi_r2_v1.2.,2013-03-03 15:16:00,
2013-03-03 10:21:00,31.3,17.0,29.74,WSW,242,1.0,8.0,55,0.00,,,0.00,HR-IXPWINDi_r2_v1.2.,2013-03-03 15:21:00,
2013-03-03 10:27:00,31.3,17.8,29.73,West,269,3.0,8.0,57,0.00,,,0.00,HR-IXPWINDi_r2_v1.2.,2013-03-03 15:27:00,
2013-03-03 10:32:00,31.9,18.0,29.73,WSW,237,10.0,10.0,56,0.00,,,0.00,HR-IXPWINDi_r2_v1.2.,2013-03-03 15:32:00,
2013-03-03 10:37:00,31.8,17.5,29.73,WSW,240,1.0,12.0,55,0.00,,,0.00,HR-IXPWINDi_r2_v1.2.,2013-03-03 15:37:00,
2013-03-03 10:42:00,31.9,17.6,29.73,WNW,300,5.0,12.0,55,0.00,,,0.00,HR-IXPWINDi_r2_v1.2.,2013-03-03 15:42:00,
2013-03-03 10:48:00,32.1,18.2,29.73,WNW,292,2.0,8.0,56,0.00,,,0.00,HR-IXPWINDi_r2_v1.2.,2013-03-03 15:48:00,
2013-03-03 10:53:00,32.6,18.2,29.72,NW,313,3.0,10.0,55,0.00,,,0.00,HR-IXPWINDi_r2_v1.2.,2013-03-03 15:53:00,
2013-03-03 10:58:00,33.0,17.7,29.72,WNW,295,3.0,10.0,53,0.00,,,0.00,HR-IXPWINDi_r2_v1.2.,2013-03-03 15:58:00,
2013-03-03 11:03:00,33.1,18.3,29.72,SW,219,6.0,9.0,54,0.00,,,0.00,HR-IXPWINDi_r2_v1.2.,2013-03-03 16:03:00,
2013-03-03 11:08:00,32.9,18.5,29.72,SSW,206,6.0,10.0,55,0.00,,,0.00,HR-IXPWINDi_r2_v1.2.,2013-03-03 16:08:00,
2013-03-03 11:13:00,32.9,18.5,29.72,SW,220,4.0,10.0,55,0.00,,,0.00,HR-IXPWINDi_r2_v1.2.,2013-03-03 16:13:00,
2013-03-03 11:19:00,33.6,19.2,29.72,NW,317,6.0,10.0,55,0.00,,,0.00,HR-IXPWINDi_r2_v1.2.,2013-03-03 16:19:00,
2013-03-03 11:24:00,33.8,19.8,29.72,SW,234,2.0,9.0,56,0.00,,,0.00,HR-IXPWINDi_r2_v1.2.,2013-03-03 16:24:00,
2013-03-03 11:29:00,33.9,19.9,29.72,WNW,293,3.0,10.0,56,0.00,,,0.00,HR-IXPWINDi_r2_v1.2.,2013-03-03 16:29:00,
2013-03-03 11:34:00,34.1,20.1,29.72,NW,324,3.0,10.0,56,0.00,,,0.00,HR-IXPWINDi_r2_v1.2.,2013-03-03 16:34:00,
2013-03-03 11:39:00,33.5,19.5,29.72,NW,321,5.0,8.0,56,0.00,,,0.00,HR-IXPWINDi_r2_v1.2.,2013-03-03 16:39:00,
2013-03-03 11:45:00,33.2,20.0,29.72,SW,219,1.0,8.0,58,0.00,,,0.00,HR-IXPWINDi_r2_v1.2.,2013-03-03 16:45:00,
2013-03-03 11:50:00,32.7,20.4,29.72,NW,320,2.0,7.0,60,0.00,,,0.00,HR-IXPWINDi_r2_v1.2.,2013-03-03 16:50:00,
2013-03-03 11:55:00,32.1,20.6,29.72,North,352,1.0,7.0,62,0.00,,,0.00,HR-IXPWINDi_r2_v1.2.,2013-03-03 16:55:00,
2013-03-03 12:00:00,32.3,21.1,29.72,NW,321,3.0,7.0,63,0.00,,,0.00,HR-IXPWINDi_r2_v1.2.,2013-03-03 17:00:00,
2013-03-03 12:05:00,31.9,21.5,29.72,WNW,293,1.0,6.0,65,0.00,,,0.00,HR-IXPWINDi_r2_v1.2.,2013-03-03 17:05:00,
2013-03-03 12:11:00,31.7,21.3,29.72,West,275,3.0,9.0,65,0.00,,,0.00,HR-IXPWINDi_r2_v1.2.,2013-03-03 17:11:00,
2013-03-03 12:16:00,31.7,22.3,29.72,NW,325,1.0,9.0,68,0.00,,,0.00,HR-IXPWINDi_r2_v1.2.,2013-03-03 17:16:00,
2013-03-03 12:21:00,31.6,22.3,29.72,WNW,296,1.0,8.0,68,0.00,,,0.00,HR-IXPWINDi_r2_v1.2.,2013-03-03 17:21:00,
2013-03-03 12:26:00,31.5,21.8,29.72,North,354,2.0,5.0,67,0.00,,,0.00,HR-IXPWINDi_r2_v1.2.,2013-03-03 17:26:00,
2013-03-03 12:31:00,31.6,22.3,29.71,West,273,3.0,5.0,68,0.00,,,0.00,HR-IXPWINDi_r2_v1.2.,2013-03-03 17:31:00,
2013-03-03 12:36:00,31.7,21.6,29.71,WNW,283,5.0,6.0,66,0.00,,,0.00,HR-IXPWINDi_r2_v1.2.,2013-03-03 17:36:00,
2013-03-03 12:42:00,31.7,21.6,29.71,NW,316,2.0,6.0,66,0.00,,,0.00,HR-IXPWINDi_r2_v1.2.,2013-03-03 17:42:00,
2013-03-03 12:47:00,31.6,21.9,29.71,NW,321,0.0,6.0,67,0.00,,,0.00,HR-IXPWINDi_r2_v1.2.,2013-03-03 17:47:00,
2013-03-03 12:52:00,31.8,21.4,29.71,NW,324,4.0,7.0,65,0.00,,,0.00,HR-IXPWINDi_r2_v1.2.,2013-03-03 17:52:00,
2013-03-03 12:57:00,32.0,22.3,29.71,SW,222,2.0,7.0,67,0.00,,,0.00,HR-IXPWINDi_r2_v1.2.,2013-03-03 17:57:00,
2013-03-03 13:02:00,32.0,21.9,29.71,WSW,238,2.0,6.0,66,0.00,,,0.00,HR-IXPWINDi_r2_v1.2.,2013-03-03 18:02:00,
2013-03-03 13:08:00,31.9,22.9,29.71,WNW,299,3.0,6.0,69,0.00,,,0.00,HR-IXPWINDi_r2_v1.2.,2013-03-03 18:08:00,
2013-03-03 13:13:00,31.5,23.2,29.71,SW,223,0.0,7.0,71,0.00,,,0.00,HR-IXPWINDi_r2_v1.2.,2013-03-03 18:13:00,
2013-03-03 13:18:00,31.4,22.7,29.70,NNW,330,2.0,10.0,70,0.00,,,0.00,HR-IXPWINDi_r2_v1.2.,2013-03-03 18:18:00,
2013-03-03 13:23:00,31.4,22.4,29.71,WNW,289,2.0,10.0,69,0.00,,,0.00,HR-IXPWINDi_r2_v1.2.,2013-03-03 18:23:00,
2013-03-03 13:28:00,31.6,21.9,29.70,West,268,3.0,7.0,67,0.00,,,0.00,HR-IXPWINDi_r2_v1.2.,2013-03-03 18:28:00,
2013-03-03 13:34:00,31.9,21.1,29.70,NW,321,1.0,6.0,64,0.00,,,0.00,HR-IXPWINDi_r2_v1.2.,2013-03-03 18:34:00,
2013-03-03 13:39:00,32.3,21.9,29.70,NNW,341,3.0,8.0,65,0.00,,,0.00,HR-IXPWINDi_r2_v1.2.,2013-03-03 18:39:00,
2013-03-03 13:44:00,32.4,22.0,29.70,NW,326,3.0,8.0,65,0.00,,,0.00,HR-IXPWINDi_r2_v1.2.,2013-03-03 18:44:00,
2013-03-03 13:49:00,32.4,21.6,29.69,NNW,340,1.0,7.0,64,0.00,,,0.00,HR-IXPWINDi_r2_v1.2.,2013-03-03 18:49:00,
2013-03-03 13:54:00,32.4,22.3,29.70,NW,314,4.0,7.0,66,0.00,,,0.00,HR-IXPWINDi_r2_v1.2.,2013-03-03 18:54:00,
2013-03-03 13:59:00,32.1,23.1,29.70,West,261,1.0,7.0,69,0.00,,,0.00,HR-IXPWINDi_r2_v1.2.,2013-03-03 18:59:00,
2013-03-03 14:04:00,32.2,22.8,29.70,North,356,3.0,7.0,68,0.00,,,0.00,HR-IXPWINDi_r2_v1.2.,2013-03-03 19:04:00,
2013-03-03 14:10:00,32.3,23.6,29.70,NNW,341,4.0,6.0,70,0.00,,,0.00,HR-IXPWINDi_r2_v1.2.,2013-03-03 19:10:00,
2013-03-03 14:15:00,32.3,22.9,29.70,NNW,344,3.0,6.0,68,0.00,,,0.00,HR-IXPWINDi_r2_v1.2.,2013-03-03 19:15:00,
2013-03-03 14:20:00,32.4,23.4,29.70,NNW,338,1.0,5.0,69,0.00,,,0.00,HR-IXPWINDi_r2_v1.2.,2013-03-03 19:20:00,
2013-03-03 14:25:00,32.7,23.3,29.70,WSW,242,2.0,5.0,68,0.00,,,0.00,HR-IXPWINDi_r2_v1.2.,2013-03-03 19:25:00,
2013-03-03 14:30:00,32.7,23.0,29.69,WNW,285,2.0,7.0,67,0.00,,,0.00,HR-IXPWINDi_r2_v1.2.,2013-03-03 19:30:00,
2013-03-03 14:36:00,33.2,23.8,29.69,North,349,2.0,7.0,68,0.00,,,0.00,HR-IXPWINDi_r2_v1.2.,2013-03-03 19:36:00,
2013-03-03 14:41:00,33.4,24.3,29.69,NNW,340,2.0,9.0,69,0.00,,,0.00,HR-IXPWINDi_r2_v1.2.,2013-03-03 19:41:00,
2013-03-03 14:46:00,33.1,24.0,29.69,NW,321,4.0,9.0,69,0.00,,,0.00,HR-IXPWINDi_r2_v1.2.,2013-03-03 19:46:00,
2013-03-03 14:51:00,33.1,24.0,29.69,NNE,20,0.0,5.0,69,0.00,,,0.00,HR-IXPWINDi_r2_v1.2.,2013-03-03 19:51:00,
2013-03-03 14:56:00,33.1,23.7,29.69,West,281,1.0,6.0,68,0.00,,,0.00,HR-IXPWINDi_r2_v1.2.,2013-03-03 19:56:00,
2013-03-03 15:01:00,33.2,23.1,29.69,WSW,243,2.0,10.0,66,0.00,,,0.00,HR-IXPWINDi_r2_v1.2.,2013-03-03 20:01:00,
2013-03-03 15:07:00,33.7,23.5,29.69,West,262,3.0,10.0,66,0.00,,,0.00,HR-IXPWINDi_r2_v1.2.,2013-03-03 20:07:00,
2013-03-03 15:12:00,33.8,23.3,29.69,WNW,292,2.0,6.0,65,0.00,,,0.00,HR-IXPWINDi_r2_v1.2.,2013-03-03 20:12:00,
2013-03-03 15:17:00,33.8,23.3,29.69,SSW,210,1.0,6.0,65,0.00,,,0.00,HR-IXPWINDi_r2_v1.2.,2013-03-03 20:17:00,
2013-03-03 15:22:00,33.6,22.7,29.69,NW,313,1.0,9.0,64,0.00,,,0.00,HR-IXPWINDi_r2_v1.2.,2013-03-03 20:22:00,
2013-03-03 15:28:00,33.6,22.7,29.69,WNW,296,6.0,9.0,64,0.00,,,0.00,HR-IXPWINDi_r2_v1.2.,2013-03-03 20:28:00,
2013-03-03 15:33:00,33.5,22.6,29.69,WNW,286,2.0,8.0,64,0.00,,,0.00,HR-IXPWINDi_r2_v1.2.,2013-03-03 20:33:00,
2013-03-03 15:38:00,33.3,22.8,29.70,North,356,4.0,8.0,65,0.00,,,0.00,HR-IXPWINDi_r2_v1.2.,2013-03-03 20:38:00,
2013-03-03 15:43:00,33.3,22.8,29.70,NW,323,1.0,8.0,65,0.00,,,0.00,HR-IXPWINDi_r2_v1.2.,2013-03-03 20:43:00,
2013-03-03 15:48:00,33.4,22.5,29.70,NNW,341,2.0,8.0,64,0.00,,,0.00,HR-IXPWINDi_r2_v1.2.,2013-03-03 20:48:00,
2013-03-03 15:54:00,33.2,22.7,29.69,North,349,3.0,6.0,65,0.00,,,0.00,HR-IXPWINDi_r2_v1.2.,2013-03-03 20:54:00,
2013-03-03 15:59:00,33.2,22.3,29.70,NNW,347,1.0,6.0,64,0.00,,,0.00,HR-IXPWINDi_r2_v1.2.,2013-03-03 20:59:00,
2013-03-03 16:04:00,33.4,22.2,29.70,WSW,240,5.0,6.0,63,0.00,,,0.00,HR-IXPWINDi_r2_v1.2.,2013-03-03 21:04:00,
2013-03-03 16:09:00,33.2,22.0,29.70,WNW,300,3.0,10.0,63,0.00,,,0.00,HR-IXPWINDi_r2_v1.2.,2013-03-03 21:09:00,
2013-03-03 16:14:00,33.4,22.2,29.70,SSW,204,5.0,10.0,63,0.00,,,0.00,HR-IXPWINDi_r2_v1.2.,2013-03-03 21:14:00,
2013-03-03 16:20:00,33.3,21.7,29.70,North,1,3.0,8.0,62,0.00,,,0.00,HR-IXPWINDi_r2_v1.2.,2013-03-03 21:20:00,
2013-03-03 16:25:00,33.3,21.7,29.70,WSW,238,4.0,8.0,62,0.00,,,0.00,HR-IXPWINDi_r2_v1.2.,2013-03-03 21:25:00,
2013-03-03 16:30:00,33.3,21.3,29.70,WNW,300,2.0,8.0,61,0.00,,,0.00,HR-IXPWINDi_r2_v1.2.,2013-03-03 21:30:00,
2013-03-03 16:35:00,33.2,21.2,29.70,NW,324,4.0,8.0,61,0.00,,,0.00,HR-IXPWINDi_r2_v1.2.,2013-03-03 21:35:00,
2013-03-03 16:40:00,33.1,21.1,29.70,NW,310,2.0,7.0,61,0.00,,,0.00,HR-IXPWINDi_r2_v1.2.,2013-03-03 21:40:00,
2013-03-03 16:46:00,32.9,20.9,29.70,WSW,253,2.0,7.0,61,0.00,,,0.00,HR-IXPWINDi_r2_v1.2.,2013-03-03 21:46:00,
2013-03-03 16:51:00,32.8,20.8,29.70,NW,316,2.0,8.0,61,0.00,,,0.00,HR-IXPWINDi_r2_v1.2.,2013-03-03 21:51:00,
2013-03-03 16:56:00,32.7,20.7,29.70,NW,306,4.0,8.0,61,0.00,,,0.00,HR-IXPWINDi_r2_v1.2.,2013-03-03 21:56:00,
2013-03-03 17:01:00,32.6,20.6,29.70,NW,318,3.0,6.0,61,0.00,,,0.00,HR-IXPWINDi_r2_v1.2.,2013-03-03 22:01:00,
2013-03-03 17:07:00,32.5,20.6,29.70,WSW,255,1.0,11.0,61,0.00,,,0.00,HR-IXPWINDi_r2_v1.2.,2013-03-03 22:07:00,
2013-03-03 17:12:00,32.4,20.5,29.70,West,275,0.0,11.0,61,0.00,,,0.00,HR-IXPWINDi_r2_v1.2.,2013-03-03 22:12:00,
2013-03-03 17:17:00,32.3,20.4,29.70,NW,313,0.0,6.0,61,0.00,,,0.00,HR-IXPWINDi_r2_v1.2.,2013-03-03 22:17:00,
2013-03-03 17:22:00,32.3,20.7,29.70,West,262,2.0,7.0,62,0.00,,,0.00,HR-IXPWINDi_r2_v1.2.,2013-03-03 22:22:00,
2013-03-03 17:28:00,32.2,20.7,29.71,WSW,252,0.0,7.0,62,0.00,,,0.00,HR-IXPWINDi_r2_v1.2.,2013-03-03 22:28:00,
2013-03-03 17:33:00,32.1,20.2,29.71,WNW,292,4.0,6.0,61,0.00,,,0.00,HR-IXPWINDi_r2_v1.2.,2013-03-03 22:33:00,
2013-03-03 17:38:00,31.9,20.0,29.71,West,260,2.0,7.0,61,0.00,,,0.00,HR-IXPWINDi_r2_v1.2.,2013-03-03 22:38:00,
2013-03-03 17:43:00,31.8,20.3,29.71,WNW,291,4.0,7.0,62,0.00,,,0.00,HR-IXPWINDi_r2_v1.2.,2013-03-03 22:43:00,
2013-03-03 17:48:00,31.6,20.1,29.71,NNW,337,1.0,7.0,62,0.00,,,0.00,HR-IXPWINDi_r2_v1.2.,2013-03-03 22:48:00,
2013-03-03 17:54:00,31.5,20.0,29.71,NW,314,3.0,7.0,62,0.00,,,0.00,HR-IXPWINDi_r2_v1.2.,2013-03-03 22:54:00,
2013-03-03 17:59:00,31.4,20.3,29.72,West,279,6.0,9.0,63,0.00,,,0.00,HR-IXPWINDi_r2_v1.2.,2013-03-03 22:59:00,
2013-03-03 18:04:00,31.3,20.2,29.72,NNW,328,4.0,9.0,63,0.00,,,0.00,HR-IXPWINDi_r2_v1.2.,2013-03-03 23:04:00,
2013-03-03 18:09:00,31.2,20.1,29.72,SW,226,3.0,9.0,63,0.00,,,0.00,HR-IXPWINDi_r2_v1.2.,2013-03-03 23:09:00,
2013-03-03 18:14:00,31.0,19.9,29.72,SW,224,0.0,10.0,63,0.00,,,0.00,HR-IXPWINDi_r2_v1.2.,2013-03-03 23:14:00,
2013-03-03 18:19:00,30.9,20.2,29.72,NNW,328,2.0,10.0,64,0.00,,,0.00,HR-IXPWINDi_r2_v1.2.,2013-03-03 23:19:00,
2013-03-03 18:24:00,30.8,20.1,29.72,WSW,250,2.0,9.0,64,0.00,,,0.00,HR-IXPWINDi_r2_v1.2.,2013-03-03 23:24:00,
2013-03-03 18:29:00,30.6,19.5,29.72,NNW,331,2.0,9.0,63,0.00,,,0.00,HR-IXPWINDi_r2_v1.2.,2013-03-03 23:29:00,
2013-03-03 18:35:00,30.5,19.8,29.72,North,356,4.0,8.0,64,0.00,,,0.00,HR-IXPWINDi_r2_v1.2.,2013-03-03 23:35:00,
2013-03-03 18:40:00,30.4,19.7,29.72,WNW,297,3.0,8.0,64,0.00,,,0.00,HR-IXPWINDi_r2_v1.2.,2013-03-03 23:40:00,
2013-03-03 18:45:00,30.3,19.6,29.73,WSW,258,3.0,6.0,64,0.00,,,0.00,HR-IXPWINDi_r2_v1.2.,2013-03-03 23:45:00,
2013-03-03 18:50:00,30.2,19.5,29.73,NW,311,4.0,9.0,64,0.00,,,0.00,HR-IXPWINDi_r2_v1.2.,2013-03-03 23:50:00,
2013-03-03 18:55:00,30.1,19.8,29.73,SW,220,3.0,9.0,65,0.00,,,0.00,HR-IXPWINDi_r2_v1.2.,2013-03-03 23:55:00,
2013-03-03 19:00:00,30.1,19.4,29.73,SW,236,1.0,10.0,64,0.00,,,0.00,HR-IXPWINDi_r2_v1.2.,2013-03-04 00:00:00,
2013-03-03 19:06:00,30.0,19.7,29.73,NW,320,4.0,10.0,65,0.00,,,0.00,HR-IXPWINDi_r2_v1.2.,2013-03-04 00:06:00,
2013-03-03 19:11:00,29.9,19.6,29.73,WSW,255,4.0,11.0,65,0.00,,,0.00,HR-IXPWINDi_r2_v1.2.,2013-03-04 00:11:00,
2013-03-03 19:16:00,29.9,19.6,29.74,West,277,1.0,11.0,65,0.00,,,0.00,HR-IXPWINDi_r2_v1.2.,2013-03-04 00:16:00,
2013-03-03 19:21:00,29.8,19.5,29.73,North,358,2.0,12.0,65,0.00,,,0.00,HR-IXPWINDi_r2_v1.2.,2013-03-04 00:21:00,
2013-03-03 19:26:00,29.7,19.0,29.74,West,280,1.0,12.0,64,0.00,,,0.00,HR-IXPWINDi_r2_v1.2.,2013-03-04 00:26:00,
2013-03-03 19:32:00,29.6,18.9,29.74,West,262,1.0,10.0,64,0.00,,,0.00,HR-IXPWINDi_r2_v1.2.,2013-03-04 00:32:00,
2013-03-03 19:37:00,29.5,18.8,29.74,West,275,5.0,10.0,64,0.00,,,0.00,HR-IXPWINDi_r2_v1.2.,2013-03-04 00:37:00,
2013-03-03 19:42:00,29.5,19.2,29.74,NNW,344,8.0,9.0,65,0.00,,,0.00,HR-IXPWINDi_r2_v1.2.,2013-03-04 00:42:00,
2013-03-03 19:47:00,29.4,18.7,29.74,NNW,340,4.0,9.0,64,0.00,,,0.00,HR-IXPWINDi_r2_v1.2.,2013-03-04 00:47:00,
2013-03-03 19:52:00,29.4,18.7,29.75,NW,321,2.0,7.0,64,0.00,,,0.00,HR-IXPWINDi_r2_v1.2.,2013-03-04 00:52:00,
2013-03-03 19:57:00,29.4,19.1,29.75,NNW,331,4.0,6.0,65,0.00,,,0.00,HR-IXPWINDi_r2_v1.2.,2013-03-04 00:57:00,
2013-03-03 20:03:00,29.3,18.3,29.75,WNW,296,2.0,12.0,63,0.00,,,0.00,HR-IXPWINDi_r2_v1.2.,2013-03-04 01:03:00,
2013-03-03 20:08:00,29.3,18.6,29.76,North,351,9.0,12.0,64,0.00,,,0.00,HR-IXPWINDi_r2_v1.2.,2013-03-04 01:08:00,
2013-03-03 20:13:00,29.3,18.6,29.76,WSW,240,1.0,11.0,64,0.00,,,0.00,HR-IXPWINDi_r2_v1.2.,2013-03-04 01:13:00,
2013-03-03 20:18:00,29.3,18.6,29.76,South,191,5.0,11.0,64,0.00,,,0.00,HR-IXPWINDi_r2_v1.2.,2013-03-04 01:18:00,
2013-03-03 20:23:00,29.3,18.6,29.76,NW,313,1.0,8.0,64,0.00,,,0.00,HR-IXPWINDi_r2_v1.2.,2013-03-04 01:23:00,
2013-03-03 20:28:00,29.2,18.9,29.77,WNW,285,2.0,8.0,65,0.00,,,0.00,HR-IXPWINDi_r2_v1.2.,2013-03-04 01:28:00,
2013-03-03 20:34:00,29.1,18.5,29.77,NNW,347,3.0,7.0,64,0.00,,,0.00,HR-IXPWINDi_r2_v1.2.,2013-03-04 01:34:00,
2013-03-03 20:39:00,29.1,18.5,29.77,WSW,243,3.0,7.0,64,0.00,,,0.00,HR-IXPWINDi_r2_v1.2.,2013-03-04 01:39:00,
2013-03-03 20:44:00,29.0,18.7,29.77,WSW,238,1.0,7.0,65,0.00,,,0.00,HR-IXPWINDi_r2_v1.2.,2013-03-04 01:44:00,
2013-03-03 20:49:00,29.0,18.4,29.77,WNW,283,4.0,11.0,64,0.00,,,0.00,HR-IXPWINDi_r2_v1.2.,2013-03-04 01:49:00,
2013-03-03 20:54:00,28.9,18.3,29.77,NNW,332,4.0,11.0,64,0.00,,,0.00,HR-IXPWINDi_r2_v1.2.,2013-03-04 01:54:00,
2013-03-03 21:00:00,28.8,18.5,29.77,NW,325,4.0,10.0,65,0.00,,,0.00,HR-IXPWINDi_r2_v1.2.,2013-03-04 02:00:00,
2013-03-03 21:05:00,28.7,18.4,29.77,WSW,253,4.0,10.0,65,0.00,,,0.00,HR-IXPWINDi_r2_v1.2.,2013-03-04 02:05:00,
2013-03-03 21:10:00,28.6,18.3,29.77,West,280,1.0,9.0,65,0.00,,,0.00,HR-IXPWINDi_r2_v1.2.,2013-03-04 02:10:00,
2013-03-03 21:15:00,28.6,18.3,29.77,WSW,250,1.0,9.0,65,0.00,,,0.00,HR-IXPWINDi_r2_v1.2.,2013-03-04 02:15:00,
2013-03-03 21:20:00,28.5,18.6,29.77,WNW,282,5.0,8.0,66,0.00,,,0.00,HR-IXPWINDi_r2_v1.2.,2013-03-04 02:20:00,
2013-03-03 21:26:00,28.4,18.5,29.77,WSW,245,3.0,10.0,66,0.00,,,0.00,HR-IXPWINDi_r2_v1.2.,2013-03-04 02:26:00,
2013-03-03 21:31:00,28.3,18.1,29.78,NW,320,4.0,10.0,65,0.00,,,0.00,HR-IXPWINDi_r2_v1.2.,2013-03-04 02:31:00,
2013-03-03 21:36:00,28.3,18.1,29.78,SW,233,2.0,10.0,65,0.00,,,0.00,HR-IXPWINDi_r2_v1.2.,2013-03-04 02:36:00,
2013-03-03 21:41:00,28.2,18.0,29.78,SW,226,2.0,7.0,65,0.00,,,0.00,HR-IXPWINDi_r2_v1.2.,2013-03-04 02:41:00,
2013-03-03 21:47:00,28.1,17.9,29.78,NW,310,1.0,14.0,65,0.00,,,0.00,HR-IXPWINDi_r2_v1.2.,2013-03-04 02:47:00,
2013-03-03 21:52:00,28.1,17.9,29.78,NW,314,2.0,14.0,65,0.00,,,0.00,HR-IXPWINDi_r2_v1.2.,2013-03-04 02:52:00,
2013-03-03 21:57:00,28.0,17.8,29.78,NW,321,4.0,10.0,65,0.00,,,0.00,HR-IXPWINDi_r2_v1.2.,2013-03-04 02:57:00,
2013-03-03 22:02:00,28.0,17.8,29.78,SSW,212,1.0,10.0,65,0.00,,,0.00,HR-IXPWINDi_r2_v1.2.,2013-03-04 03:02:00,
2013-03-03 22:07:00,27.9,17.7,29.78,NW,314,1.0,10.0,65,0.00,,,0.00,HR-IXPWINDi_r2_v1.2.,2013-03-04 03:07:00,
2013-03-03 22:13:00,27.9,17.7,29.78,West,278,3.0,7.0,65,0.00,,,0.00,HR-IXPWINDi_r2_v1.2.,2013-03-04 03:13:00,
2013-03-03 22:18:00,27.9,17.7,29.78,WNW,287,4.0,6.0,65,0.00,,,0.00,HR-IXPWINDi_r2_v1.2.,2013-03-04 03:18:00,
2013-03-03 22:23:00,27.8,17.2,29.78,SW,220,4.0,11.0,64,0.00,,,0.00,HR-IXPWINDi_r2_v1.2.,2013-03-04 03:23:00,
2013-03-03 22:28:00,27.8,17.2,29.77,NNW,344,4.0,11.0,64,0.00,,,0.00,HR-IXPWINDi_r2_v1.2.,2013-03-04 03:28:00,
2013-03-03 22:34:00,27.7,17.1,29.77,NNW,332,2.0,10.0,64,0.00,,,0.00,HR-IXPWINDi_r2_v1.2.,2013-03-04 03:34:00,
2013-03-03 22:39:00,27.7,17.5,29.77,WNW,292,7.0,10.0,65,0.00,,,0.00,HR-IXPWINDi_r2_v1.2.,2013-03-04 03:39:00,
2013-03-03 22:44:00,27.7,17.1,29.77,NW,317,4.0,10.0,64,0.00,,,0.00,HR-IXPWINDi_r2_v1.2.,2013-03-04 03:44:00,
2013-03-03 22:49:00,27.7,17.1,29.77,NW,321,3.0,10.0,64,0.00,,,0.00,HR-IXPWINDi_r2_v1.2.,2013-03-04 03:49:00,
2013-03-03 22:54:00,27.6,17.0,29.77,West,273,2.0,11.0,64,0.00,,,0.00,HR-IXPWINDi_r2_v1.2.,2013-03-04 03:54:00,
2013-03-03 23:00:00,27.5,16.9,29.77,NW,321,4.0,11.0,64,0.00,,,0.00,HR-IXPWINDi_r2_v1.2.,2013-03-04 04:00:00,
2013-03-03 23:05:00,27.5,17.3,29.78,SW,236,1.0,9.0,65,0.00,,,0.00,HR-IXPWINDi_r2_v1.2.,2013-03-04 04:05:00,
2013-03-03 23:10:00,27.4,16.8,29.78,WNW,288,2.0,5.0,64,0.00,,,0.00,HR-IXPWINDi_r2_v1.2.,2013-03-04 04:10:00,
2013-03-03 23:15:00,27.4,17.2,29.78,WNW,287,1.0,5.0,65,0.00,,,0.00,HR-IXPWINDi_r2_v1.2.,2013-03-04 04:15:00,
2013-03-03 23:20:00,27.4,16.8,29.77,WNW,285,1.0,9.0,64,0.00,,,0.00,HR-IXPWINDi_r2_v1.2.,2013-03-04 04:20:00,
2013-03-03 23:25:00,27.4,16.8,29.78,NW,325,2.0,9.0,64,0.00,,,0.00,HR-IXPWINDi_r2_v1.2.,2013-03-04 04:25:00,
2013-03-03 23:31:00,27.4,16.8,29.78,NW,325,0.0,6.0,64,0.00,,,0.00,HR-IXPWINDi_r2_v1.2.,2013-03-04 04:31:00,
2013-03-03 23:36:00,27.4,16.8,29.78,WSW,241,1.0,8.0,64,0.00,,,0.00,HR-IXPWINDi_r2_v1.2.,2013-03-04 04:36:00,
2013-03-03 23:41:00,27.5,16.9,29.78,SW,233,2.0,9.0,64,0.00,,,0.00,HR-IXPWINDi_r2_v1.2.,2013-03-04 04:41:00,
2013-03-03 23:46:00,27.5,16.9,29.78,WNW,300,3.0,9.0,64,0.00,,,0.00,HR-IXPWINDi_r2_v1.2.,2013-03-04 04:46:00,
2013-03-03 23:51:00,27.6,17.0,29.78,NNW,344,3.0,8.0,64,0.00,,,0.00,HR-IXPWINDi_r2_v1.2.,2013-03-04 04:51:00,
2013-03-03 23:56:00,27.6,17.0,29.78,WNW,285,4.0,8.0,64,0.00,,,0.00,HR-IXPWINDi_r2_v1.2.,2013-03-04 04:56:00,